K5NCO Weather Reports


time (UTC)temp
C
wind
direction
speed
KPH
gust
KPH
rain 1hr
cm
rain 24hr
cm
rain mn
cm
humidity
%
barometer
mb
20260904065314 27 151 6.4 9.7 0.00 0.00 0.00 84 1015.3
20260904064809 27 133 9.7 12.9 0.00 0.00 0.00 84 1015.2
20260904064305 27 169 9.7 14.5 0.00 0.00 0.00 84 1015.1
20260904063801 27 166 6.4 9.7 0.00 0.00 0.00 84 1015.2
20260904063257 27 159 9.7 11.3 0.00 0.00 0.00 84 1014.9
20260904062752 27 192 3.2 3.2 0.00 0.00 0.00 84 1015.1
20260904062248 27 192 9.7 12.9 0.00 0.00 0.00 84 1015.0
20260904061743 27 105 4.8 4.8 0.00 0.00 0.00 83 1015.0
20260904061239 27 123 9.7 12.9 0.00 0.00 0.00 84 1015.1
20260904060736 27 171 6.4 6.4 0.00 0.00 0.00 83 1014.9
20260904060231 27 135 3.2 4.8 0.00 0.00 0.00 83 1015.1
20260904055726 27 131 14.5 14.5 0.00 0.00 0.00 84 1015.1
20260904055220 26 143 9.7 12.9 0.00 0.00 0.00 84 1015.4
20260904054716 26 118 8.0 11.3 0.00 0.00 0.00 83 1015.2
20260904054212 27 125 12.9 14.5 0.00 0.00 0.00 83 1015.1
20260904053707 27 115 3.2 3.2 0.00 0.00 0.00 83 1015.1
20260904053202 27 84 11.3 14.5 0.00 0.00 0.00 83 1015.2
20260904052658 26 120 9.7 12.9 0.00 0.00 0.00 83 1015.2
20260904052154 26 131 8.0 11.3 0.00 0.00 0.00 83 1015.0
20260904051650 26 154 11.3 14.5 0.00 0.00 0.00 83 1014.9
20260904051145 26 140 9.7 12.9 0.00 0.00 0.00 83 1014.9
20260904050640 26 145 12.9 16.1 0.00 0.00 0.00 83 1014.9
20260904050136 26 130 8.0 16.1 0.00 0.00 0.00 83 1014.9
20260904045630 26 138 9.7 11.3 0.00 0.00 0.00 83 1015.0
20260904045125 26 82 6.4 9.7 0.00 0.00 0.00 83 1015.0
20260904044621 26 159 9.7 16.1 0.00 0.00 0.00 83 1015.1
20260904044117 26 119 9.7 11.3 0.00 0.00 0.00 83 1014.9
20260904043614 26 108 14.5 16.1 0.00 0.00 0.00 83 1015.0
20260904043109 26 78 4.8 6.4 0.00 0.00 0.00 82 1015.0
20260904042605 27 149 8.0 12.9 0.00 0.00 0.00 82 1015.0
20260904042100 27 139 6.4 11.3 0.00 0.00 0.00 82 1015.0
20260904041556 27 126 8.0 9.7 0.00 0.00 0.00 82 1015.0
20260904041052 27 131 6.4 6.4 0.00 0.00 0.00 82 1015.0
20260904040552 27 109 6.4 6.4 0.00 0.00 0.00 82 1014.9
20260904040049 27 94 11.3 17.7 0.00 0.00 0.00 81 1014.9
20260904035549 27 166 4.8 9.7 0.00 0.00 0.00 81 1014.9
20260904035043 27 101 8.0 11.3 0.00 0.00 0.00 81 1014.7
20260904034538 27 118 9.7 12.9 0.00 0.00 0.00 81 1015.0
20260904034033 27 121 8.0 9.7 0.00 0.00 0.00 80 1014.7
20260904033529 27 113 9.7 14.5 0.00 0.00 0.00 80 1014.9
20260904033027 27 127 9.7 12.9 0.00 0.00 0.00 79 1014.9
20260904032522 27 125 11.3 14.5 0.00 0.00 0.00 79 1014.6
20260904032020 27 122 17.7 17.7 0.00 0.00 0.00 79 1014.7
20260904031515 27 120 14.5 17.7 0.00 0.00 0.00 79 1014.8
20260904031011 27 119 16.1 22.5 0.00 0.00 0.00 78 1014.7
20260904030507 27 94 14.5 14.5 0.00 0.00 0.00 78 1014.6
20260904030002 27 187 16.1 20.9 0.00 0.00 0.00 77 1014.5
20260904025458 27 82 9.7 12.9 0.00 0.00 0.00 77 1014.6
20260904024958 27 107 22.5 25.7 0.00 0.00 0.00 76 1014.6
20260904024453 27 87 6.4 6.4 0.00 0.00 0.00 75 1014.4
20260904023949 27 150 9.7 11.3 0.00 0.00 0.00 75 1014.5
20260904023445 27 96 9.7 12.9 0.00 0.00 0.00 74 1014.4
20260904022945 28 130 3.2 4.8 0.00 0.00 0.00 74 1014.4
20260904022441 28 119 14.5 20.9 0.00 0.00 0.00 74 1014.2
20260904021937 28 94 9.7 12.9 0.00 0.00 0.00 73 1014.1
20260904021433 28 110 12.9 16.1 0.00 0.00 0.00 73 1014.1
20260904020927 28 84 9.7 12.9 0.00 0.00 0.00 73 1013.9
20260904020422 28 123 6.4 11.3 0.00 0.00 0.00 72 1013.8
20260904015921 28 100 9.7 14.5 0.00 0.00 0.00 72 1013.9
20260904015417 28 168 3.2 4.8 0.00 0.00 0.00 72 1013.9
20260904014915 28 76 3.2 4.8 0.00 0.00 0.00 71 1013.9
20260904014411 28 83 19.3 22.5 0.00 0.00 0.00 71 1013.7
20260904013906 28 83 8.0 9.7 0.00 0.00 0.00 70 1013.8
20260904013402 28 82 9.7 14.5 0.00 0.00 0.00 70 1013.8
20260904012857 28 95 8.0 9.7 0.00 0.00 0.00 70 1013.6
20260904012352 28 77 4.8 6.4 0.00 0.00 0.00 69 1013.6
20260904011851 28 91 11.3 14.5 0.00 0.00 0.00 69 1013.6
20260904011346 28 103 17.7 24.1 0.00 0.00 0.00 69 1013.2
20260904010841 28 95 6.4 6.4 0.00 0.00 0.00 69 1013.4
20260904010338 29 168 8.0 11.3 0.00 0.00 0.00 69 1013.2
20260904005833 29 115 9.7 14.5 0.00 0.00 0.00 69 1013.5
20260904005328 29 103 8.0 14.5 0.00 0.00 0.00 68 1013.4
20260904004823 29 152 9.7 12.9 0.00 0.00 0.00 68 1013.4
20260904004320 29 114 8.0 11.3 0.00 0.00 0.00 68 1013.4
20260904003814 29 96 17.7 22.5 0.00 0.00 0.00 68 1013.5
20260904003311 30 88 12.9 17.7 0.00 0.00 0.00 67 1013.4
20260904002806 30 123 14.5 24.1 0.00 0.00 0.00 67 1013.5
20260904002306 30 116 9.7 12.9 0.00 0.00 0.00 67 1013.5
20260904001801 30 59 9.7 12.9 0.00 0.00 0.00 67 1013.2
20260904001256 30 102 11.3 16.1 0.00 0.00 0.00 67 1013.4
20260904000751 30 100 8.0 16.1 0.00 0.00 0.00 66 1013.4
20260904000251 30 112 11.3 16.1 0.00 0.00 0.00 66 1013.2
20260903235750 30 66 12.9 16.1 0.00 0.00 0.00 65 1013.2
20260903235247 30 82 16.1 20.9 0.00 0.00 0.00 66 1013.1
20260903234746 30 73 9.7 14.5 0.00 0.00 0.00 66 1013.1
20260903234243 31 40 9.7 12.9 0.00 0.00 0.00 65 1013.2
20260903233738 31 104 11.3 16.1 0.00 0.00 0.00 65 1013.0
20260903233234 31 110 19.3 27.4 0.00 0.00 0.00 65 1012.8
20260903232732 31 76 16.1 20.9 0.00 0.00 0.00 65 1012.8
20260903232229 31 59 19.3 25.7 0.00 0.00 0.00 65 1012.9
20260903231728 31 145 16.1 22.5 0.00 0.00 0.00 66 1013.0
20260903231223 31 116 17.7 20.9 0.00 0.00 0.00 66 1013.0
20260903230720 31 127 24.1 27.4 0.00 0.00 0.00 65 1012.9
20260903230220 31 63 16.1 29.0 0.00 0.00 0.00 65 1012.9
20260903225716 32 88 12.9 17.7 0.00 0.00 0.00 64 1012.7
20260903225212 32 142 14.5 17.7 0.00 0.00 0.00 64 1012.6
20260903224708 32 133 4.8 11.3 0.00 0.00 0.00 65 1012.6
20260903224204 32 78 16.1 22.5 0.00 0.00 0.00 65 1012.5
20260903223659 32 151 6.4 9.7 0.00 0.00 0.00 66 1012.4
20260903223157 33 67 24.1 35.4 0.00 0.00 0.00 64 1012.3
20260903222652 33 78 24.1 33.8 0.00 0.00 0.00 62 1012.5
20260903222150 33 97 29.0 38.6 0.00 0.00 0.00 62 1012.2
20260903221646 33 108 9.7 11.3 0.00 0.00 0.00 62 1012.4
20260903221144 33 117 20.9 25.7 0.00 0.00 0.00 61 1012.4
20260903220643 33 83 14.5 16.1 0.00 0.00 0.00 60 1012.5
20260903220138 33 77 19.3 29.0 0.00 0.00 0.00 61 1012.2
20260903215637 33 89 9.7 16.1 0.00 0.00 0.00 59 1012.4
20260903215133 34 71 11.3 20.9 0.00 0.00 0.00 56 1012.2
20260903214631 33 78 12.9 20.9 0.00 0.00 0.00 55 1012.3
20260903214127 33 65 8.0 12.9 0.00 0.00 0.00 56 1012.5
20260903213621 34 121 6.4 9.7 0.00 0.00 0.00 56 1012.5
20260903213117 33 88 16.1 22.5 0.00 0.00 0.00 57 1012.4
20260903212613 33 100 12.9 16.1 0.00 0.00 0.00 56 1012.6
20260903212108 34 116 11.3 16.1 0.00 0.00 0.00 55 1012.3
20260903211603 34 50 6.4 14.5 0.00 0.00 0.00 55 1012.5
20260903211100 34 92 16.1 20.9 0.00 0.00 0.00 53 1012.5
20260903210555 35 52 11.3 17.7 0.00 0.00 0.00 53 1012.7
20260903210050 34 83 17.7 24.1 0.00 0.00 0.00 53 1012.8
20260903205549 35 78 14.5 20.9 0.00 0.00 0.00 54 1012.7
20260903205044 34 83 6.4 9.7 0.00 0.00 0.00 54 1012.8
20260903204540 34 119 12.9 16.1 0.00 0.00 0.00 56 1012.8
20260903204035 34 51 16.1 25.7 0.00 0.00 0.00 55 1012.9
20260903203531 35 86 9.7 16.1 0.00 0.00 0.00 54 1013.1
20260903203030 35 94 12.9 17.7 0.00 0.00 0.00 53 1013.0
20260903202526 35 68 8.0 12.9 0.00 0.00 0.00 54 1013.1
20260903202021 35 127 8.0 9.7 0.00 0.00 0.00 54 1013.1
20260903201516 35 70 17.7 25.7 0.00 0.00 0.00 54 1013.4
20260903201015 35 79 14.5 17.7 0.00 0.00 0.00 53 1013.4
20260903200510 35 107 6.4 11.3 0.00 0.00 0.00 51 1013.2
20260903200005 35 71 1.6 3.2 0.00 0.00 0.00 54 1013.5
20260903195501 35 99 12.9 20.9 0.00 0.00 0.00 53 1013.4
20260903194956 35 63 9.7 16.1 0.00 0.00 0.00 51 1013.5
20260903194451 35 108 8.0 9.7 0.00 0.00 0.00 52 1013.5
20260903193947 35 71 3.2 4.8 0.00 0.00 0.00 53 1013.6
20260903193443 35 68 6.4 9.7 0.00 0.00 0.00 53 1013.5
20260903192938 35 79 6.4 12.9 0.00 0.00 0.00 54 1013.8
20260903192435 34 142 11.3 14.5 0.00 0.00 0.00 52 1013.8
20260903191930 33 104 9.7 12.9 0.00 0.00 0.00 54 1013.9
20260903191426 33 131 1.6 4.8 0.00 0.00 0.00 54 1013.9
20260903190925 33 88 6.4 9.7 0.00 0.00 0.00 55 1014.1
20260903190425 33 171 4.8 9.7 0.00 0.00 0.00 54 1014.1
20260903185920 33 74 3.2 4.8 0.00 0.00 0.00 56 1014.3
20260903185415 34 137 8.0 11.3 0.00 0.00 0.00 55 1014.5
20260903184909 34 117 4.8 4.8 0.00 0.00 0.00 54 1014.5
20260903184406 33 202 8.0 11.3 0.00 0.00 0.00 54 1014.6
20260903183906 33 145 3.2 3.2 0.00 0.00 0.00 53 1014.7
20260903183401 34 130 9.7 12.9 0.00 0.00 0.00 53 1014.6
20260903182855 34 6 0.0 0.0 0.00 0.00 0.00 54 1014.7
20260903182354 35 163 4.8 4.8 0.00 0.00 0.00 52 1014.7
20260903181849 35 154 8.0 11.3 0.00 0.00 0.00 53 1014.7
20260903181343 33 60 3.2 3.2 0.00 0.00 0.00 55 1014.9
20260903180838 33 143 3.2 3.2 0.00 0.00 0.00 55 1015.0
20260903180337 32 112 6.4 11.3 0.00 0.00 0.00 58 1015.1
20260903175832 33 177 6.4 6.4 0.00 0.00 0.00 58 1015.3
20260903175331 33 139 9.7 14.5 0.00 0.00 0.00 56 1015.4
20260903174825 32 44 3.2 3.2 0.00 0.00 0.00 58 1015.4
20260903174321 33 99 14.5 16.1 0.00 0.00 0.00 58 1015.5
20260903173815 32 79 3.2 3.2 0.00 0.00 0.00 59 1015.4
20260903173311 33 94 8.0 9.7 0.00 0.00 0.00 57 1015.5
20260903172807 32 41 4.8 6.4 0.00 0.00 0.00 61 1015.4
20260903172301 33 127 3.2 4.8 0.00 0.00 0.00 59 1015.5
20260903171756 33 186 4.8 9.7 0.00 0.00 0.00 57 1015.6
20260903171252 32 215 11.3 16.1 0.00 0.00 0.00 58 1015.5
20260903170750 32 191 4.8 6.4 0.00 0.00 0.00 60 1015.6
20260903170246 32 221 3.2 3.2 0.00 0.00 0.00 62 1015.6
20260903165744 32 181 16.1 20.9 0.00 0.00 0.00 62 1015.7
20260903165239 32 188 12.9 16.1 0.00 0.00 0.00 62 1015.6
20260903164739 31 86 11.3 14.5 0.00 0.00 0.00 63 1015.7
20260903164235 31 199 12.9 16.1 0.00 0.00 0.00 65 1015.4
20260903163734 31 195 12.9 14.5 0.00 0.00 0.00 64 1015.6
20260903163231 31 144 9.7 12.9 0.00 0.00 0.00 65 1015.5
20260903162726 31 168 17.7 22.5 0.00 0.00 0.00 65 1015.6
20260903162222 32 138 9.7 12.9 0.00 0.00 0.00 64 1015.6
20260903161718 31 210 8.0 9.7 0.00 0.00 0.00 65 1015.5
20260903161213 31 165 12.9 16.1 0.00 0.00 0.00 66 1015.5
20260903160709 31 177 16.1 17.7 0.00 0.00 0.00 66 1015.4
20260903160202 31 193 17.7 20.9 0.00 0.00 0.00 66 1015.5
20260903155701 31 178 16.1 16.1 0.00 0.00 0.00 67 1015.5
20260903155156 31 211 11.3 14.5 0.00 0.00 0.00 67 1015.4
20260903154652 31 212 4.8 6.4 0.00 0.00 0.00 66 1015.5
20260903154148 30 230 12.9 16.1 0.00 0.00 0.00 69 1015.6
20260903153644 30 155 16.1 20.9 0.00 0.00 0.00 69 1015.5
20260903153139 30 217 12.9 16.1 0.00 0.00 0.00 70 1015.5
20260903152635 30 157 11.3 14.5 0.00 0.00 0.00 71 1015.4
20260903152131 30 201 9.7 14.5 0.00 0.00 0.00 70 1015.5
20260903151630 30 221 11.3 14.5 0.00 0.00 0.00 72 1015.3
20260903151125 30 146 6.4 9.7 0.00 0.00 0.00 73 1015.5
20260903150620 30 175 14.5 16.1 0.00 0.00 0.00 73 1015.3
20260903150115 30 176 14.5 17.7 0.00 0.00 0.00 71 1015.3
20260903145615 30 203 9.7 14.5 0.00 0.00 0.00 73 1015.4
20260903145110 29 199 12.9 16.1 0.00 0.00 0.00 75 1015.5
20260903144609 29 218 6.4 9.7 0.00 0.00 0.00 75 1015.7
20260903144105 29 214 8.0 11.3 0.00 0.00 0.00 76 1015.4
20260903143601 29 250 9.7 11.3 0.00 0.00 0.00 75 1015.4
20260903143056 29 204 17.7 22.5 0.00 0.00 0.00 76 1015.4
20260903142552 29 298 14.5 16.1 0.00 0.00 0.00 77 1015.3
20260903142049 28 145 6.4 9.7 0.00 0.00 0.00 78 1015.3
20260903141549 28 229 11.3 16.1 0.00 0.00 0.00 79 1015.4
20260903141044 28 195 4.8 9.7 0.00 0.00 0.00 80 1015.4
20260903140540 27 170 14.5 20.9 0.00 0.00 0.00 80 1015.5
20260903140035 27 183 12.9 17.7 0.00 0.00 0.00 81 1015.6
20260903135531 27 131 14.5 22.5 0.00 0.00 0.00 80 1015.3
20260903135031 28 171 22.5 30.6 0.00 0.00 0.00 80 1015.3
20260903134530 27 186 9.7 12.9 0.00 0.00 0.00 81 1015.3
20260903134026 27 198 9.7 12.9 0.00 0.00 0.00 83 1015.4
20260903133524 27 176 19.3 22.5 0.00 0.00 0.00 83 1015.4
20260903133019 27 174 17.7 22.5 0.00 0.00 0.00 84 1015.4
20260903132514 27 185 14.5 16.1 0.00 0.00 0.00 84 1015.4
20260903132009 27 215 12.9 16.1 0.00 0.00 0.00 84 1015.6
20260903131504 27 188 8.0 11.3 0.00 0.00 0.00 85 1015.4
20260903130957 27 181 9.7 11.3 0.00 0.00 0.00 85 1015.6
20260903130452 27 218 9.7 12.9 0.00 0.00 0.00 85 1015.6
20260903125950 27 152 4.8 9.7 0.00 0.00 0.00 85 1015.6
20260903125444 27 180 9.7 12.9 0.00 0.00 0.00 85 1015.4
20260903124939 27 183 9.7 14.5 0.00 0.00 0.00 85 1015.2
20260903124434 27 190 16.1 20.9 0.00 0.00 0.00 86 1015.3
20260903123933 27 181 14.5 16.1 0.00 0.00 0.00 86 1015.3
20260903123428 27 130 4.8 9.7 0.00 0.00 0.00 86 1015.3
20260903122926 27 192 6.4 9.7 0.00 0.00 0.00 86 1015.1
20260903122421 27 195 16.1 17.7 0.00 0.00 0.00 86 1015.2
20260903121920 27 178 11.3 14.5 0.00 0.00 0.00 86 1015.2
20260903121415 27 151 9.7 11.3 0.00 0.00 0.00 86 1015.0
20260903120911 27 189 11.3 12.9 0.00 0.00 0.00 86 1015.1
20260903120409 27 159 6.4 6.4 0.00 0.00 0.00 87 1015.1
20260903115908 27 185 14.5 17.7 0.00 0.00 0.00 87 1015.0
20260903115403 27 194 8.0 9.7 0.00 0.00 0.00 87 1014.9
20260903114858 27 181 12.9 17.7 0.00 0.00 0.00 87 1015.1
20260903114354 26 203 9.7 12.9 0.00 0.00 0.00 87 1015.0
20260903113849 27 179 9.7 11.3 0.00 0.00 0.00 87 1015.0
20260903113344 27 173 6.4 12.9 0.00 0.00 0.00 87 1015.0
20260903112840 27 180 9.7 11.3 0.00 0.00 0.00 87 1014.9
20260903112336 27 165 6.4 6.4 0.00 0.00 0.00 87 1015.1
20260903111834 27 153 14.5 17.7 0.00 0.00 0.00 86 1015.1
20260903111329 27 185 16.1 20.9 0.00 0.00 0.00 87 1015.0
20260903110826 27 179 16.1 22.5 0.00 0.00 0.00 87 1014.9
20260903110321 27 180 9.7 11.3 0.00 0.00 0.00 87 1014.8
20260903105820 26 131 12.9 14.5 0.00 0.00 0.00 87 1014.8
20260903105310 27 188 4.8 9.7 0.00 0.00 0.00 87 1014.8
20260903104809 26 153 12.9 16.1 0.00 0.00 0.00 87 1014.8
20260903104304 26 175 11.3 12.9 0.00 0.00 0.00 87 1014.8
20260903103801 26 181 12.9 16.1 0.00 0.00 0.00 87 1014.7
20260903103256 26 187 12.9 16.1 0.00 0.00 0.00 87 1014.5
20260903102751 26 173 12.9 16.1 0.00 0.00 0.00 87 1014.7
20260903102246 26 193 14.5 20.9 0.00 0.00 0.00 87 1014.6
20260903101744 26 186 9.7 12.9 0.00 0.00 0.00 87 1014.7
20260903101240 26 189 20.9 24.1 0.00 0.00 0.00 87 1014.5
20260903100736 26 219 6.4 9.7 0.00 0.00 0.00 87 1014.6
20260903100230 26 188 17.7 24.1 0.00 0.00 0.00 87 1014.7
20260903095727 26 167 9.7 11.3 0.00 0.00 0.00 87 1014.3
20260903095223 26 168 14.5 17.7 0.00 0.00 0.00 87 1014.6
20260903094718 26 178 8.0 12.9 0.00 0.00 0.00 86 1014.6
20260903094213 26 140 8.0 12.9 0.00 0.00 0.00 87 1014.7
20260903093708 26 132 8.0 9.7 0.00 0.00 0.00 86 1014.7
20260903093203 26 182 8.0 11.3 0.00 0.00 0.00 86 1014.8
20260903092657 27 179 16.1 20.9 0.00 0.00 0.00 86 1014.7
20260903092151 27 139 19.3 24.1 0.00 0.00 0.00 86 1015.0
20260903091650 27 140 8.0 9.7 0.00 0.00 0.00 86 1014.8
20260903091144 27 196 12.9 16.1 0.00 0.00 0.00 86 1015.0
20260903090640 27 182 12.9 16.1 0.00 0.00 0.00 85 1014.8
20260903090139 27 174 12.9 17.7 0.00 0.00 0.00 85 1014.9
20260903085638 27 175 14.5 20.9 0.00 0.00 0.00 85 1014.9
20260903085134 27 204 8.0 11.3 0.00 0.00 0.00 85 1015.0
20260903084631 27 206 9.7 11.3 0.00 0.00 0.00 85 1014.9
20260903084126 27 159 9.7 11.3 0.00 0.00 0.00 85 1014.8
20260903083621 27 212 9.7 12.9 0.00 0.00 0.00 85 1015.2
20260903083116 27 180 6.4 6.4 0.00 0.00 0.00 84 1015.0
20260903082610 27 182 14.5 17.7 0.00 0.00 0.00 85 1014.9
20260903082106 27 174 9.7 12.9 0.00 0.00 0.00 85 1015.0
20260903081601 27 198 16.1 20.9 0.00 0.00 0.00 85 1015.1
20260903081057 27 113 9.7 14.5 0.00 0.00 0.00 84 1014.9
20260903080553 27 177 14.5 17.7 0.00 0.00 0.00 84 1014.9
20260903080049 27 157 3.2 3.2 0.00 0.00 0.00 84 1015.0
20260903075544 27 121 3.2 6.4 0.00 0.00 0.00 84 1015.0
20260903075040 27 92 11.3 12.9 0.00 0.00 0.00 84 1014.9
20260903074538 27 140 9.7 14.5 0.00 0.00 0.00 84 1014.9
20260903074033 27 135 16.1 20.9 0.00 0.00 0.00 83 1014.9
20260903073529 27 158 11.3 16.1 0.00 0.00 0.00 83 1015.0
20260903073025 27 184 19.3 24.1 0.00 0.00 0.00 83 1015.1
20260903072520 27 218 4.8 6.4 0.00 0.00 0.00 82 1015.3
20260903072016 27 186 14.5 20.9 0.00 0.00 0.00 82 1015.1
20260903071512 27 193 11.3 14.5 0.00 0.00 0.00 81 1015.1
20260903071007 27 182 16.1 20.9 0.00 0.00 0.00 81 1015.1
20260903070507 27 143 14.5 16.1 0.00 0.00 0.00 80 1015.2
20260903070003 27 197 9.7 12.9 0.00 0.00 0.00 80 1015.2
20260903065457 27 143 8.0 11.3 0.00 0.00 0.00 79 1015.2